Location: *
(16.6199°S, 99.4576°W)
Time: 01:02:19
(UTC+00:00)

Daily predictions for brighter satellites

Satellite Brightness Start Highest point End
(mag) Time Altitude Azimuth Time Altitude Azimuth Time Altitude Azimuth
Cosmos 2181 Rocket 4.3 00:34:24 10° SSE 00:40:23 45° E 00:46:23 10° NNE
Okean 1 3.0 00:38:38 10° S 00:42:20 82° E 00:45:58 10° N
SL-24 R/B 4.4 00:37:38 10° SSE 00:42:44 61° E 00:47:08 10° N
IGS 5A 3.4 00:42:06 10° S 00:46:09 85° W 00:50:08 10° NNW
Cosmos 2297 Rocket 3.7 00:44:05 10° SE 00:46:35 13° ESE 00:49:04 10° E
Cosmos 1125 Rocket 3.5 00:43:36 10° NNW 00:48:48 89° WSW 00:54:01 10° SSE
SJ-6F 4.4 00:48:57 10° S 00:53:02 88° WSW 00:57:06 10° NNW
Cosmos 1238 Rocket 2.5 00:52:57 10° S 00:56:24 74° W 00:59:26 10° N
ACS3 Solar Sail 4.1 00:54:16 10° SSW 00:58:52 22° WSW 01:03:24 10° WNW
Spot 4 Rocket 4.3 00:55:45 10° SSE 01:00:40 45° E 01:05:32 10° N
Cosmos 2074 Rocket 4.2 00:54:32 10° N 01:00:45 78° W 01:07:05 10° S
Cosmos 1980 Rocket 2.6 00:55:40 10° N 01:01:00 44° ENE 01:06:12 11° SE
ISS -0.8 01:06:32 10° SW 01:07:04 10° SW 01:07:37 10° SW
SL-19 R/B 4.5 01:04:42 10° SSE 01:10:55 65° ENE 01:16:48 10° N
Atlas Centaur 2 3.5 01:08:51 10° SSW 01:11:13 14° S 01:12:24 13° SSE
Iridium 4 Rocket 3.6 01:06:14 10° NNE 01:11:26 55° E 01:16:16 10° SSE
SMAP 4.3 01:07:32 10° S 01:11:56 41° WSW 01:16:18 10° NW
GPS 2-15 Rocket1 3.1 01:08:01 10° WSW 01:12:47 73° S 01:15:42 23° E
Cosmos 1743 4.3 01:13:03 10° NNW 01:16:02 30° W 01:19:03 10° SSW
Cosmos 1346 Rocket 3.4 01:13:01 10° NNW 01:16:36 52° W 01:20:16 10° S
Genesis I 2.6 01:15:02 10° NW 01:17:21 50° WSW 01:18:15 29° S
Cosmos 2221 4.3 01:15:58 10° SSW 01:19:42 32° W 01:23:25 10° NNW
Cosmos 1697 Rocket 4.0 01:16:37 10° NW 01:21:50 39° WSW 01:27:05 10° S
SPOT 1/Viking Rocket 4.1 01:25:00 28° ESE 01:26:40 35° E 01:31:17 10° NNE
Cosmos 1048 Rocket 4.0 01:26:21 10° S 01:31:21 51° ESE 01:36:16 10° NNE
PSLV R/B 3.7 01:28:39 11° S 01:32:39 69° WSW 01:36:45 10° NNW
Cosmos 494 Rocket 4.4 01:33:50 10° SSW 01:38:52 62° WNW 01:43:54 10° N
Mugunghwa Rocket 4.4 01:33:09 10° WSW 01:39:39 68° NNW 01:45:19 17° NE
ATLAS 5 CENTAUR R/B 3.6 01:33:12 10° WSW 01:40:09 85° SSE 02:08:19 15° ENE
Cosmos 1842 Rocket 3.3 01:37:45 10° S 01:42:05 82° E 01:46:22 10° N
NOSS 3-4 (A) 4.0 01:38:19 10° SW 01:44:13 54° WNW 01:49:29 10° N
NOSS 3-4 (C) 3.9 01:38:25 10° SW 01:44:19 55° WNW 01:49:34 10° N
SL-16 R/B 4.1 01:42:04 10° NE 01:43:03 13° NE 01:43:03 13° NE
Cosmos 1339 Rocket 4.3 01:47:39 10° S 01:53:43 63° E 01:59:41 10° NNE
Centaur AC-119 4.3 01:48:19 10° WSW 01:54:42 83° SSE 02:03:12 26° ENE
Meteor 2-10 3.7 01:53:52 10° N 01:58:53 83° E 01:59:31 68° SSE
IUS R/B (1) 4.2 01:40:51 10° WSW 01:59:56 42° S 02:00:56 39° SSE
GPS 2-17 Rocket1 3.4 02:00:04 10° WNW 02:04:14 58° NNW 02:04:14 58° NNW
Nadezhda 3 Rocket 4.4 02:01:27 10° SSW 02:07:32 60° W 02:13:39 10° N
Cosmos 864 Rocket 4.4 02:02:52 10° N 02:09:08 90° SW 02:11:13 45° S
Meteor 2-4 Rocket 3.6 02:03:29 10° S 02:09:11 88° W 02:15:00 10° N
YAOGAN 1 3.3 02:11:46 47° WSW 02:11:58 48° WSW 02:16:04 10° NNW
SL-4 R/B 3.4 02:08:33 10° SW 02:11:00 33° WSW 02:11:00 33° WSW
SL-08 R/B 4.4 02:11:05 10° N 02:15:22 41° W 02:19:44 10° SSW
SL-8 Rocket 4.2 02:09:21 10° NNW 02:15:33 67° W 02:19:01 28° S
Ariane H10-3 4.2 02:20:08 10° WNW 02:22:41 17° NNW 02:22:41 17° NNW
Cosmos 2366 rocket 4.3 02:17:45 10° NNW 02:23:50 64° W 02:25:46 43° SSW
Cosmos 2218 Rocket 4.1 02:18:16 10° NNW 02:24:20 69° W 02:25:41 53° SSW
Cosmos 2297 Rocket 3.0 02:25:12 10° SSW 02:30:39 49° WNW 02:36:04 10° N
Centaur D-1AR AC-36 3.2 02:25:12 10° W 02:34:46 46° SW 02:34:46 46° SW
CZ-3 Stage 3 3.6 02:34:52 10° W 02:46:55 38° SW 02:46:55 38° SW
ATLAS 3B R/B 4.1 09:58:51 10° N 10:05:04 33° ENE 10:10:54 10° SE
CZ-3 Stage 3 3.9 10:11:39 45° N 10:11:39 45° N 10:25:15 10° NE
Milstar 3 Cent rocket 4.3 10:17:28 19° E 10:17:28 19° E 10:18:51 10° E
ADEOS Rocket 3.7 10:16:58 10° NNE 10:23:29 70° NE 10:23:29 70° NE
USA 59 Rocket 3.1 10:31:21 27° S 10:31:21 27° S 10:35:25 10° SSE
Cosmos 1656 4.5 10:37:32 48° E 10:37:32 48° E 10:42:27 10° NNE
USA 267 4.5 10:33:55 10° NNE 10:37:23 29° NNW 10:37:23 29° NNW
ATLAS 2A CENTAUR R/B 4.1 10:41:32 61° WNW 10:43:47 88° SSW 11:24:19 10° ESE
ACS3 Solar Sail 3.6 10:40:04 10° NE 10:45:05 26° ESE 10:50:09 10° SSE
Cosmos 2315 Rocket 4.3 10:40:00 10° N 10:46:17 67° E 10:52:38 10° SSE
Aurora 2 Rocket 4.3 10:52:47 37° SSE 10:52:47 37° SSE 10:58:49 10° ESE
EPKM 4.4 10:56:39 37° SE 10:56:39 37° SE 10:58:26 10° ESE
FengYun 1-2 T 4.3 10:50:16 10° NNE 10:55:04 68° N 10:55:04 68° N
Cosmos 883 Rocket 4.4 10:53:45 10° N 11:00:05 84° W 11:01:43 53° S
Cosmos 773 Rocket 4.3 10:55:11 10° N 11:00:23 66° ENE 11:05:38 10° SSE
USA 229 DEB 4.1 11:01:03 10° NNW 11:09:24 83° ENE 11:17:27 10° SSE
USA 229 4.1 11:01:10 10° NNW 11:09:30 83° ENE 11:17:34 10° SSE
Cosmos 1867 3.7 11:08:59 55° S 11:10:02 70° ESE 11:15:24 10° NNE
Cosmos 1386 Rocket 4.4 11:09:17 56° SSW 11:10:39 74° W 11:16:59 10° N
Cosmos 2082 Rocket 2.0 11:05:40 10° NNW 11:11:22 81° WSW 11:17:06 10° SSE
SL-16 R/B 3.5 11:16:08 29° NW 11:16:08 29° NW 11:19:07 10° NNW
SJ-11-01 4.4 11:11:16 10° N 11:15:17 62° NNW 11:15:17 62° NNW
Cosmos 1484 Rocket 3.6 11:15:40 10° NNE 11:18:01 41° NNE 11:18:01 41° NNE
Centaur AC-42 2.5 11:20:54 48° WNW 11:22:23 90° S 11:37:06 10° ESE
Delta 142 3.3 11:26:28 65° NW 11:26:59 79° NNE 11:31:04 10° ESE
NOAA 12 4.0 11:23:36 10° N 11:28:51 65° WNW 11:30:46 39° SW
FUSE 3.8 11:28:04 44° WNW 11:29:47 87° NNE 11:35:09 10° ESE
Delta 198 4.0 11:29:49 39° WNW 11:31:52 83° NNE 11:37:50 10° ESE
SWIFT 2.5 11:34:38 44° SSE 11:34:38 44° SSE 11:37:48 10° ESE
Cosmos 2360 4.2 11:33:44 35° SW 11:36:05 63° WNW 11:41:43 10° N
Cosmos 1606 Rocket 4.1 11:37:10 10° NNW 11:40:28 37° WNW 11:40:28 37° WNW
Cosmos 1758 Rocket 3.9 11:41:34 41° W 11:41:34 41° W 11:45:31 10° NNW
Timation 1 Rocket 4.5 11:36:04 10° NW 11:41:48 49° WSW 11:47:34 10° S
Centaur Rocket 4.5 11:36:32 10° WNW 11:43:04 34° N 11:46:06 10° ENE
Cosmos 1602 Rocket 3.6 11:45:01 27° SSW 11:47:16 57° W 11:51:33 10° N
BREEZE-M DEB (TANK) 3.1 11:50:44 25° S 11:51:32 33° SE 11:53:31 10° ENE
Cosmos 1933 3.1 11:48:01 10° N 11:51:51 70° W 11:55:45 10° S
Cosmos 1980 Rocket 4.0 11:47:02 10° S 11:51:56 30° ESE 11:56:46 10° NE
Thor Agena Rocket 3.7 11:47:06 10° N 11:52:10 52° WNW 11:56:17 16° SSW
Hubble Space Telescope 2.7 11:54:20 13° S 11:54:55 14° S 11:56:59 10° SSE
